Lubbock, TX

10:37 PM CST on November 17, 2019 (GMT -0600)
Lubbock International

Weather History for KLBB - September, 2019

Change the Weather History Date:

Sunday, September 8, 2019

  Actual Average Record
Temperature  
Mean Temperature 81 °F 74 °F  
Max Temperature 93 °F 87 °F 97 °F (1915)
Min Temperature 68 °F 62 °F 47 °F (2004)
Degree Days  
Heating Degree Days 0 0  
Month to date heating degree days 0 0  
Since 1 July heating degree days 0 0  
Cooling Degree Days 16 9  
Month to date cooling degree days 121 83  
Year to date cooling degree days 1839 1609  
Growing Degree Days 31 (Base 50)    
Moisture  
Dew Point 57 °F    
Average Humidity 50    
Maximum Humidity 84    
Minimum Humidity 26    
Precipitation  
Precipitation 0.08 in 0.09 in 1.89 in (1976)
Month to date precipitation 0.08 0.68  
Year to date precipitation 15.67 13.75  
Snow  
Snow 0.00 in 0.00 in 0.00 in (2002)
Month to date snowfall 0.0 0.0  
Since 1 July snowfall 0.0 0.0  
Since 1 September snowfall 0.0 0.0  
Snow Depth 0.00 in    
Sea Level Pressure  
Sea Level Pressure 29.83 in    
Wind  
Wind Speed 10 mph ()    
Max Wind Speed 26 mph    
Max Gust Speed 33 mph    
Visibility 9.9 miles    
Events Rain    
T = Trace of Precipitation, MM = Missing Value Source: Averaged Metar Reports

Daily Weather History Graph

Daily Weather History Graph

Search for Another Location

Airport or City:

Astronomy

Sep. 08, 2019 Rise Set
Actual Time 7:25 AM CDT 8:03 PM CDT
Civil Twilight 7:00 AM CDT 8:28 PM CDT
Nautical Twilight 6:31 AM CDT 8:58 PM CDT
Astronomical Twilight 6:00 AM CDT 9:28 PM CDT
Moon 5:00 PM CDT (9/8) 2:20 AM CDT (9/8)
Length of Visible Light 13h 28m
Length of Day
12h 37m
Waxing Gibbous, 75% of the Moon is Illuminated
Sep 8
Waxing Gibbous
Sep 13
Full
Sep 21
Last Quarter
Sep 28
New
Oct 5
First Quarter

Hourly Weather History & Observations

Time (CDT) Temp. Heat Index Dew Point Humidity Pressure Visibility Wind Dir Wind Speed Gust Speed Precip Events Conditions
12:53 AM 78.1 °F - 55.0 °F 45% 29.85 in 10.0 mi SSE 12.7 mph - N/A   Mostly Cloudy
1:53 AM 75.9 °F - 55.0 °F 48% 29.85 in 10.0 mi SSE 8.1 mph - N/A   Mostly Cloudy
2:53 AM 75.9 °F - 55.9 °F 50% 29.83 in 10.0 mi South 8.1 mph - N/A   Mostly Cloudy
3:53 AM 75.9 °F - 55.0 °F 48% 29.82 in 10.0 mi South 11.5 mph - N/A   Mostly Cloudy
4:53 AM 75.9 °F - 55.9 °F 50% 29.82 in 10.0 mi South 11.5 mph - N/A   Mostly Cloudy
5:53 AM 73.0 °F - 55.9 °F 55% 29.84 in 10.0 mi SSW 6.9 mph - N/A   Mostly Cloudy
6:53 AM 69.1 °F - 55.9 °F 63% 29.86 in 10.0 mi NW 6.9 mph - N/A   Mostly Cloudy
7:53 AM 69.1 °F - 55.9 °F 63% 29.86 in 10.0 mi Calm Calm - N/A   Scattered Clouds
8:53 AM 75.9 °F - 57.0 °F 52% 29.87 in 10.0 mi SSW 5.8 mph - N/A   Mostly Cloudy
9:53 AM 80.1 °F 80.7 °F 59.0 °F 48% 29.87 in 10.0 mi SW 15.0 mph - N/A   Scattered Clouds
10:53 AM 82.9 °F 82.8 °F 59.0 °F 44% 29.87 in 10.0 mi SSW 13.8 mph - N/A   Mostly Cloudy
11:53 AM 88.0 °F 86.9 °F 57.9 °F 36% 29.85 in 10.0 mi SSW 13.8 mph - N/A   Scattered Clouds
12:53 PM 89.1 °F 87.3 °F 55.9 °F 32% 29.83 in 10.0 mi South 19.6 mph 26.5 mph N/A   Mostly Cloudy
1:53 PM 90.0 °F 87.5 °F 53.1 °F 28% 29.81 in 10.0 mi SSE 13.8 mph 26.5 mph N/A   Mostly Cloudy
2:53 PM 93.0 °F 90.6 °F 53.1 °F 26% 29.77 in 10.0 mi South 15.0 mph - N/A   Mostly Cloudy
3:53 PM 90.0 °F - 52.0 °F 27% 29.75 in 10.0 mi South 13.8 mph 21.9 mph N/A   Mostly Cloudy
4:53 PM 89.1 °F 86.7 °F 53.1 °F 29% 29.75 in 10.0 mi SSE 11.5 mph - N/A   Mostly Cloudy
5:53 PM 89.1 °F - 52.0 °F 28% 29.75 in 10.0 mi SSE 11.5 mph - N/A   Mostly Cloudy
6:53 PM 87.1 °F - 52.0 °F 30% 29.76 in 10.0 mi SE 5.8 mph - N/A   Mostly Cloudy
7:25 PM 81.0 °F 81.3 °F 59.0 °F 47% 29.92 in 10.0 mi West 8.1 mph 21.9 mph N/A   Overcast
7:53 PM 77.0 °F - 64.0 °F 64% 29.81 in 8.0 mi WSW 16.1 mph 23.0 mph 0.00 in Rain Light Rain
8:53 PM 71.1 °F - 66.0 °F 84% 29.83 in 9.0 mi WSW 16.1 mph - 0.02 in Rain Light Rain
9:53 PM 71.1 °F - 66.0 °F 84% 29.84 in 10.0 mi West 3.5 mph - 0.06 in Rain Light Rain
10:53 PM 72.0 °F - 64.9 °F 78% 29.85 in 10.0 mi SSW 17.3 mph - 0.00 in   Overcast
11:53 PM 70.0 °F - 64.0 °F 81% 29.85 in 10.0 mi SSW 23.0 mph - 0.00 in Rain Light Rain